Terminal Aerodrome Forecast
Issued by NWS

Home | Current Version | Previous Version | Graphics & Text | Print | Product List | Glossary On
Versions: 1 2 3 4 5 6 7 8 9 10 11 12 13 14 15 16 17 18 19 20
000
FTUS43 KGRB 290623 AAA
TAFAUW
TAF AMD
KAUW 290623Z 2906/3006 VRB03KT P6SM SCT012 OVC040
      TEMPO 2906/2910 6SM -RA BKN012
     FM291700 05007KT P6SM SCT070
     FM292000 08006KT P6SM SCT100
     FM292300 11006KT P6SM SCT090=

USA.gov is the U.S. government's official web portal to all federal, state and local government web resources and services.